This is the latest recevied weather packets stored in our database for station/object IZ6UQU-13. If no packets are shown the sender has not sent any weather packets the latest 10 day(s).
| Time | Temp. | Humidity | Pressure | Rain* | Wind** | Luminosity | Snow |
|---|---|---|---|---|---|---|---|
| 1777885209 | 17.22° C | 67% | 960.7 hPa | 0 mm | - | - | - |
| 1777884909 | 17.22° C | 67% | 960.7 hPa | 0 mm | - | - | - |
| 1777884609 | 17.22° C | 68% | 960.8 hPa | 0 mm | - | - | - |
| 1777884309 | 16.67° C | 70% | 960.8 hPa | 0 mm | - | - | - |
| 1777884009 | 16.11° C | 71% | 960.7 hPa | 0 mm | - | - | - |
| 1777883709 | 16.11° C | 73% | 960.8 hPa | 0 mm | - | - | - |
| 1777883409 | 16.11° C | 71% | 960.8 hPa | 0 mm | - | - | - |
| 1777883109 | 16.11° C | 74% | 960.7 hPa | 0 mm | - | - | - |
| 1777882809 | 15.56° C | 72% | 960.7 hPa | 0 mm | - | - | - |
| 1777882509 | 16.11° C | 71% | 960.7 hPa | 0 mm | - | - | - |
| 1777882209 | 16.11° C | 71% | 960.7 hPa | 0 mm | - | - | - |
| 1777881909 | 15.56° C | 71% | 960.7 hPa | 0 mm | - | - | - |
| 1777881609 | 15.56° C | 72% | 960.7 hPa | 0 mm | - | - | - |
| 1777881308 | 15.56° C | 71% | 960.7 hPa | 0 mm | - | - | - |
| 1777881009 | 15.56° C | 72% | 960.6 hPa | 0 mm | - | - | - |
| 1777880709 | 15.56° C | 72% | 960.5 hPa | 0 mm | - | - | - |
| 1777880409 | 15° C | 73% | 960.5 hPa | 0 mm | - | - | - |
| 1777880109 | 14.44° C | 76% | 960.5 hPa | 0 mm | - | - | - |
| 1777879809 | 13.89° C | 77% | 960.5 hPa | 0 mm | - | - | - |
| 1777879509 | 13.89° C | 78% | 960.5 hPa | 0 mm | - | - | - |
| 1777879209 | 13.89° C | 78% | 960.5 hPa | 0 mm | - | - | - |
| 1777878909 | 13.33° C | 81% | 960.5 hPa | 0 mm | - | - | - |
| 1777878609 | 13.33° C | 80% | 960.5 hPa | 0 mm | - | - | - |
| 1777878309 | 12.78° C | 81% | 960.4 hPa | 0 mm | - | - | - |
| 1777878008 | 13.33° C | 80% | 960.4 hPa | 0 mm | - | - | - |
* Rain latest hour (hover to see other rain measurements)
** Current wind speed in m/s (hover to see current wind gust speed)